Weather History for Morgantown, WV

Change the Weather History Date:

Sunday, March 24, 2013

  Actual Average Record
Temperature  
Mean Temperature 37 °F 45 °F  
Max Temperature 44 °F 55 °F 77 °F (1949)
Min Temperature 29 °F 35 °F 14 °F (2014)
Degree Days  
Heating Degree Days 28 20  
Month to date heating degree days 618 579  
Since 1 July heating degree days 4309 4468  
Cooling Degree Days 0 0  
Month to date cooling degree days 0 0  
Year to date cooling degree days 0 0  
Moisture  
Dew Point 25 °F    
Average Humidity 63    
Maximum Humidity 89    
Minimum Humidity 36    
Precipitation  
Precipitation 0.15 in 0.12 in 0.73 in (1969)
Month to date precipitation 1.97 2.78  
Year to date precipitation 6.54 8.19  
Sea Level Pressure  
Sea Level Pressure 29.71 in    
Wind  
Wind Speed 5 mph (ENE)    
Max Wind Speed 13 mph    
Max Gust Speed 22 mph    
Visibility 7 miles    
Events Fog , Snow    
T = Trace of Precipitation, MM = Missing Value Source: NWS Daily Summary

Daily Weather History Graph

Daily Weather History Graph

Search for Another Location

Airport:

Trip Planner

Search our weather history database for the weather conditions in past years. The results will help you decide how hot, cold, wet, or windy it might be!

Date:

Astronomy

Mar. 24, 2013 Rise Set
Actual Time 7:16 AM EDT 7:35 PM EDT
Civil Twilight 6:49 AM EDT 8:02 PM EDT
Nautical Twilight 6:17 AM EDT 8:34 PM EDT
Astronomical Twilight 5:45 AM EDT 9:06 PM EDT
Moon 5:02 PM EDT (3/24) 5:25 AM EDT (3/24)
Length of Visible Light 13h 13m
Length of Day
12h 19m
Waxing Gibbous, 91% of the Moon is Illuminated
Mar 24
Waxing Gibbous
Mar 27
Full
Apr 3
Last Quarter
Apr 10
New
Apr 18
First Quarter

Hourly Weather History & Observations

Time (EDT) Temp. Windchill Dew Point Humidity Pressure Visibility Wind Dir Wind Speed Gust Speed Precip Events Conditions
12:53 AM 34.0 °F 29.8 °F 21.0 °F 59% 29.98 in 10.0 mi NNE 4.6 mph - N/A   Clear
1:53 AM 33.1 °F - 21.9 °F 64% 29.96 in 10.0 mi Calm Calm - N/A   Clear
2:53 AM 32.0 °F 28.7 °F 21.0 °F 64% 29.94 in 10.0 mi North 3.5 mph - N/A   Clear
3:53 AM 30.9 °F 27.5 °F 21.0 °F 67% 29.95 in 10.0 mi NNW 3.5 mph - N/A   Clear
4:53 AM 30.9 °F 26.2 °F 19.9 °F 64% 29.94 in 10.0 mi North 4.6 mph - N/A   Clear
5:53 AM 30.0 °F - 19.9 °F 66% 29.91 in 10.0 mi Calm Calm - N/A   Clear
6:53 AM 30.0 °F 24.1 °F 19.9 °F 66% 29.92 in 10.0 mi NNE 5.8 mph - N/A   Clear
7:53 AM 30.0 °F 25.2 °F 19.9 °F 66% 29.91 in 10.0 mi North 4.6 mph - N/A   Clear
8:53 AM 32.0 °F 27.5 °F 21.0 °F 64% 29.87 in 10.0 mi North 4.6 mph - N/A   Clear
9:53 AM 36.0 °F - 19.9 °F 52% 29.84 in 10.0 mi Calm Calm - N/A   Clear
10:53 AM 39.0 °F 34.0 °F 19.0 °F 45% 29.79 in 10.0 mi ENE 6.9 mph - N/A   Clear
11:53 AM 41.0 °F 35.8 °F 18.0 °F 40% 29.76 in 10.0 mi ENE 8.1 mph - N/A   Clear
12:53 PM 42.1 °F 37.7 °F 19.0 °F 40% 29.70 in 10.0 mi East 6.9 mph - N/A   Clear
1:53 PM 43.0 °F 38.2 °F 18.0 °F 37% 29.68 in 10.0 mi East 8.1 mph - N/A   Scattered Clouds
2:53 PM 43.0 °F 38.2 °F 19.9 °F 40% 29.67 in 10.0 mi SE 8.1 mph - N/A   Overcast
3:53 PM 42.1 °F 37.7 °F 21.0 °F 43% 29.67 in 10.0 mi Variable 6.9 mph - N/A   Overcast
4:26 PM 37.4 °F 31.4 °F 30.2 °F 75% 29.63 in 2.0 mi SSE 8.1 mph - 0.00 in Snow Light Snow
4:53 PM 37.0 °F 31.0 °F 30.0 °F 76% 29.65 in 1.8 mi East 8.1 mph 16.1 mph 0.00 in Snow Light Snow
5:18 PM 35.6 °F 32.8 °F 30.2 °F 81% 29.62 in 0.8 mi East 3.5 mph - 0.00 in Snow Light Snow
5:53 PM 34.0 °F 28.8 °F 30.9 °F 89% 29.65 in 0.8 mi East 5.8 mph - 0.03 in Snow Light Snow
6:01 PM 33.8 °F 29.6 °F 30.2 °F 87% 29.61 in 0.5 mi ENE 4.6 mph - 0.00 in Fog , Snow Light Snow
6:17 PM 33.8 °F 28.6 °F 30.2 °F 87% 29.59 in 0.2 mi ENE 5.8 mph - 0.02 in Fog , Snow Light Snow
6:26 PM 33.8 °F 29.6 °F 30.2 °F 87% 29.60 in 0.8 mi ENE 4.6 mph - 0.03 in Snow Light Snow
6:39 PM 33.8 °F 27.7 °F 30.2 °F 87% 29.59 in 1.0 mi ENE 6.9 mph - 0.03 in Snow Light Snow
6:53 PM 34.0 °F 31.0 °F 30.0 °F 85% 29.62 in 3.0 mi NE 3.5 mph - 0.03 in Snow Light Snow
7:32 PM 33.8 °F 25.8 °F 28.4 °F 81% 29.55 in 8.0 mi East 10.4 mph - 0.00 in Snow Light Snow
7:53 PM 35.1 °F 27.9 °F 28.9 °F 78% 29.57 in 10.0 mi East 9.2 mph 17.3 mph 0.00 in   Overcast
8:53 PM 36.0 °F - 27.0 °F 70% 29.56 in 10.0 mi Calm Calm - N/A   Overcast
9:53 PM 35.1 °F 30.1 °F 28.0 °F 76% 29.53 in 6.0 mi Variable 5.8 mph - 0.00 in Snow Light Snow
10:53 PM 36.0 °F 32.1 °F 28.0 °F 73% 29.49 in 6.0 mi Variable 4.6 mph 21.9 mph 0.01 in Snow Light Snow
11:47 PM 35.6 °F 31.7 °F 28.4 °F 75% 29.50 in 2.5 mi Variable 4.6 mph - 0.01 in Snow Light Snow
11:53 PM 35.1 °F 31.0 °F 28.9 °F 78% 29.52 in 2.0 mi Variable 4.6 mph - 0.01 in Snow Light Snow